Time,TemperatureF,DewpointF,PressureIn,WindDirection,WindDirectionDegrees,WindSpeedMPH,WindSpeedGustMPH,Humidity,HourlyPrecipIn,Conditions,Clouds,dailyrainin,SolarRadiationWatts/m^2,SoftwareType,DateUTC
2013-04-10 00:00:00,69.6,56.9,30.03,WNW,293,0.0,0.0,64,0.00,,,0.00,0.00,VWS V14.01,2013-04-10 04:00:00,
2013-04-10 00:05:00,69.4,56.7,30.03,WNW,293,0.0,0.0,64,0.00,,,0.00,0.00,VWS V14.01,2013-04-10 04:05:00,
2013-04-10 00:10:00,69.3,57.0,30.03,WNW,293,0.0,0.0,65,0.00,,,0.00,0.00,VWS V14.01,2013-04-10 04:10:00,
2013-04-10 00:15:00,69.1,56.8,30.03,WNW,293,0.0,0.0,65,0.00,,,0.00,0.00,VWS V14.01,2013-04-10 04:15:00,
2013-04-10 00:20:00,69.0,56.8,30.03,WNW,293,0.0,0.0,65,0.00,,,0.00,0.00,VWS V14.01,2013-04-10 04:20:00,
2013-04-10 00:25:00,68.8,56.6,30.03,WNW,293,0.0,0.0,65,0.00,,,0.00,0.00,VWS V14.01,2013-04-10 04:25:00,
2013-04-10 00:30:00,68.6,56.8,30.04,WNW,293,0.0,0.0,66,0.00,,,0.00,0.00,VWS V14.01,2013-04-10 04:30:00,
2013-04-10 00:35:00,68.3,56.5,30.04,WNW,293,0.0,0.0,66,0.00,,,0.00,0.00,VWS V14.01,2013-04-10 04:35:00,
2013-04-10 00:40:00,68.0,56.7,30.04,WNW,293,0.0,0.0,67,0.00,,,0.00,0.00,VWS V14.01,2013-04-10 04:40:00,
2013-04-10 00:45:00,67.8,56.9,30.04,WNW,293,0.0,0.0,68,0.00,,,0.00,0.00,VWS V14.01,2013-04-10 04:45:00,
2013-04-10 00:50:00,67.4,56.9,30.04,WNW,293,0.0,0.0,69,0.00,,,0.00,0.00,VWS V14.01,2013-04-10 04:50:00,
2013-04-10 00:55:00,67.1,57.0,30.04,WNW,293,0.0,0.0,70,0.00,,,0.00,0.00,VWS V14.01,2013-04-10 04:55:00,
2013-04-10 01:00:00,66.8,56.7,30.04,WNW,293,0.0,0.0,70,0.00,,,0.00,0.00,VWS V14.01,2013-04-10 05:00:00,
2013-04-10 01:05:00,66.5,57.2,30.04,WNW,293,0.0,0.0,72,0.00,,,0.00,0.00,VWS V14.01,2013-04-10 05:05:00,
2013-04-10 01:10:00,66.2,56.9,30.04,WNW,293,0.0,0.0,72,0.00,,,0.00,0.00,VWS V14.01,2013-04-10 05:10:00,
2013-04-10 01:15:00,66.0,57.1,30.04,WNW,293,0.0,0.0,73,0.00,,,0.00,0.00,VWS V14.01,2013-04-10 05:15:00,
2013-04-10 01:20:00,65.7,56.8,30.04,WNW,293,0.0,0.0,73,0.00,,,0.00,0.00,VWS V14.01,2013-04-10 05:20:00,
2013-04-10 01:25:00,65.3,56.4,30.04,WNW,293,0.0,0.0,73,0.00,,,0.00,0.00,VWS V14.01,2013-04-10 05:25:00,
2013-04-10 01:30:00,65.0,56.5,30.03,WNW,293,0.0,0.0,74,0.00,,,0.00,0.00,VWS V14.01,2013-04-10 05:30:00,
2013-04-10 01:35:00,64.8,56.7,30.03,WNW,293,0.0,0.0,75,0.00,,,0.00,0.00,VWS V14.01,2013-04-10 05:35:00,
2013-04-10 01:40:00,64.5,56.8,30.04,WNW,293,0.0,0.0,76,0.00,,,0.00,0.00,VWS V14.01,2013-04-10 05:40:00,
2013-04-10 01:45:00,64.2,56.1,30.04,WNW,293,0.0,0.0,75,0.00,,,0.00,0.00,VWS V14.01,2013-04-10 05:45:00,
2013-04-10 01:50:00,63.9,56.6,30.03,WNW,293,0.0,0.0,77,0.00,,,0.00,0.00,VWS V14.01,2013-04-10 05:50:00,
2013-04-10 01:55:00,63.7,56.4,30.03,WNW,293,0.0,0.0,77,0.00,,,0.00,0.00,VWS V14.01,2013-04-10 05:55:00,
2013-04-10 02:00:00,63.6,57.0,30.03,WNW,293,0.0,0.0,79,0.00,,,0.00,0.00,VWS V14.01,2013-04-10 06:00:00,
2013-04-10 02:05:00,63.4,57.1,30.03,WNW,293,0.0,0.0,80,0.00,,,0.00,0.00,VWS V14.01,2013-04-10 06:05:00,
2013-04-10 02:10:00,63.1,56.8,30.03,WNW,293,0.0,0.0,80,0.00,,,0.00,0.00,VWS V14.01,2013-04-10 06:10:00,
2013-04-10 02:15:00,62.9,56.6,30.03,WNW,293,0.0,0.0,80,0.00,,,0.00,0.00,VWS V14.01,2013-04-10 06:15:00,
2013-04-10 02:20:00,62.7,56.5,30.03,WNW,293,0.0,0.0,80,0.00,,,0.00,0.00,VWS V14.01,2013-04-10 06:20:00,
2013-04-10 02:25:00,62.6,56.3,30.03,WNW,293,0.0,0.0,80,0.00,,,0.00,0.00,VWS V14.01,2013-04-10 06:25:00,
2013-04-10 02:30:00,62.5,56.6,30.03,WNW,293,0.0,0.0,81,0.00,,,0.00,0.00,VWS V14.01,2013-04-10 06:30:00,
2013-04-10 02:35:00,62.3,56.4,30.03,WNW,293,0.0,0.0,81,0.00,,,0.00,0.00,VWS V14.01,2013-04-10 06:35:00,
2013-04-10 02:40:00,62.2,56.3,30.03,WNW,293,0.0,0.0,81,0.00,,,0.00,0.00,VWS V14.01,2013-04-10 06:40:00,
2013-04-10 02:45:00,62.1,56.5,30.02,WNW,293,0.0,0.0,82,0.00,,,0.00,0.00,VWS V14.01,2013-04-10 06:45:00,
2013-04-10 02:50:00,62.0,56.5,30.02,WNW,293,0.0,0.0,82,0.00,,,0.00,0.00,VWS V14.01,2013-04-10 06:50:00,
2013-04-10 02:55:00,61.8,56.2,30.03,WNW,293,0.0,0.0,82,0.00,,,0.00,0.00,VWS V14.01,2013-04-10 06:55:00,
2013-04-10 03:00:00,61.8,56.6,30.03,WNW,293,0.0,0.0,83,0.00,,,0.00,0.00,VWS V14.01,2013-04-10 07:00:00,
2013-04-10 03:05:00,61.6,56.1,30.03,WNW,293,0.0,0.0,82,0.00,,,0.00,0.00,VWS V14.01,2013-04-10 07:05:00,
2013-04-10 03:10:00,61.4,55.9,30.02,WNW,293,0.0,0.0,82,0.00,,,0.00,0.00,VWS V14.01,2013-04-10 07:10:00,
2013-04-10 03:15:00,61.3,55.8,30.03,WNW,293,0.0,0.0,82,0.00,,,0.00,0.00,VWS V14.01,2013-04-10 07:15:00,
2013-04-10 03:20:00,61.2,56.0,30.03,WNW,293,0.0,0.0,83,0.00,,,0.00,0.00,VWS V14.01,2013-04-10 07:20:00,
2013-04-10 03:25:00,61.1,55.9,30.03,WNW,293,0.0,0.0,83,0.00,,,0.00,0.00,VWS V14.01,2013-04-10 07:25:00,
2013-04-10 03:30:00,61.0,55.8,30.03,WNW,293,0.0,0.0,83,0.00,,,0.00,0.00,VWS V14.01,2013-04-10 07:30:00,
2013-04-10 03:35:00,60.9,55.7,30.03,WNW,293,0.0,0.0,83,0.00,,,0.00,0.00,VWS V14.01,2013-04-10 07:35:00,
2013-04-10 03:40:00,60.8,55.6,30.03,WNW,293,0.0,0.0,83,0.00,,,0.00,0.00,VWS V14.01,2013-04-10 07:40:00,
2013-04-10 03:45:00,60.8,55.9,30.03,WNW,293,0.0,0.0,84,0.00,,,0.00,0.00,VWS V14.01,2013-04-10 07:45:00,
2013-04-10 03:50:00,60.7,55.8,30.03,WNW,293,0.0,0.0,84,0.00,,,0.00,0.00,VWS V14.01,2013-04-10 07:50:00,
2013-04-10 03:55:00,60.7,55.8,30.03,WNW,293,0.0,0.0,84,0.00,,,0.00,0.00,VWS V14.01,2013-04-10 07:55:00,
2013-04-10 04:00:00,60.5,55.7,30.03,WNW,293,0.0,0.0,84,0.00,,,0.00,0.00,VWS V14.01,2013-04-10 08:00:00,
2013-04-10 04:05:00,60.5,55.7,30.03,WNW,293,0.0,0.0,84,0.00,,,0.00,0.00,VWS V14.01,2013-04-10 08:05:00,
2013-04-10 04:10:00,60.4,55.5,30.03,WNW,293,0.0,0.0,84,0.00,,,0.00,0.00,VWS V14.01,2013-04-10 08:10:00,
2013-04-10 04:15:00,60.3,55.8,30.03,WNW,293,0.0,0.0,85,0.00,,,0.00,0.00,VWS V14.01,2013-04-10 08:15:00,
2013-04-10 04:20:00,60.2,55.7,30.03,WNW,293,0.0,0.0,85,0.00,,,0.00,0.00,VWS V14.01,2013-04-10 08:20:00,
2013-04-10 04:25:00,60.1,55.6,30.03,WNW,293,0.0,0.0,85,0.00,,,0.00,0.00,VWS V14.01,2013-04-10 08:25:00,
2013-04-10 04:30:00,59.9,55.4,30.03,WNW,293,0.0,0.0,85,0.00,,,0.00,0.00,VWS V14.01,2013-04-10 08:30:00,
2013-04-10 04:35:00,59.8,55.3,30.03,WNW,293,0.0,0.0,85,0.00,,,0.00,0.00,VWS V14.01,2013-04-10 08:35:00,
2013-04-10 04:40:00,59.8,55.6,30.03,WNW,293,0.0,0.0,86,0.00,,,0.00,0.00,VWS V14.01,2013-04-10 08:40:00,
2013-04-10 04:45:00,59.6,55.7,30.03,WNW,293,0.0,0.0,87,0.00,,,0.00,0.00,VWS V14.01,2013-04-10 08:45:00,
2013-04-10 04:50:00,59.5,55.6,30.03,WNW,293,0.0,0.0,87,0.00,,,0.00,0.00,VWS V14.01,2013-04-10 08:50:00,
2013-04-10 04:55:00,59.3,55.4,30.03,WNW,293,0.0,0.0,87,0.00,,,0.00,0.00,VWS V14.01,2013-04-10 08:55:00,
2013-04-10 05:00:00,59.2,55.3,30.04,WNW,293,0.0,0.0,87,0.00,,,0.00,0.00,VWS V14.01,2013-04-10 09:00:00,
2013-04-10 05:05:00,59.1,55.2,30.04,WNW,293,0.0,0.0,87,0.00,,,0.00,0.00,VWS V14.01,2013-04-10 09:05:00,
2013-04-10 05:10:00,59.0,55.5,30.04,WNW,293,0.0,0.0,88,0.00,,,0.00,0.00,VWS V14.01,2013-04-10 09:10:00,
2013-04-10 05:15:00,58.9,55.4,30.04,WNW,293,0.0,0.0,88,0.00,,,0.00,0.00,VWS V14.01,2013-04-10 09:15:00,
2013-04-10 05:20:00,58.8,55.3,30.04,WNW,293,0.0,0.0,88,0.00,,,0.00,0.00,VWS V14.01,2013-04-10 09:20:00,
2013-04-10 05:25:00,58.7,55.2,30.04,WNW,293,0.0,0.0,88,0.00,,,0.00,0.00,VWS V14.01,2013-04-10 09:25:00,
2013-04-10 05:30:00,58.6,55.1,30.04,WNW,293,0.0,0.0,88,0.00,,,0.00,0.00,VWS V14.01,2013-04-10 09:30:00,
2013-04-10 05:35:00,58.5,55.0,30.04,WNW,293,1.0,2.0,88,0.00,,,0.00,0.00,VWS V14.01,2013-04-10 09:35:00,
2013-04-10 05:40:00,58.4,55.2,30.04,WNW,293,0.0,0.0,89,0.00,,,0.00,0.00,VWS V14.01,2013-04-10 09:40:00,
2013-04-10 05:45:00,58.3,55.1,30.04,WNW,293,0.0,0.0,89,0.00,,,0.00,0.00,VWS V14.01,2013-04-10 09:45:00,
2013-04-10 05:50:00,58.2,55.0,30.04,WNW,293,0.0,0.0,89,0.00,,,0.00,0.00,VWS V14.01,2013-04-10 09:50:00,
2013-04-10 05:55:00,58.2,55.0,30.04,WNW,293,0.0,0.0,89,0.00,,,0.00,0.00,VWS V14.01,2013-04-10 09:55:00,
2013-04-10 06:00:00,58.1,54.9,30.04,WNW,293,0.0,0.0,89,0.00,,,0.00,0.00,VWS V14.01,2013-04-10 10:00:00,
2013-04-10 06:05:00,58.0,54.8,30.04,WNW,293,0.0,0.0,89,0.00,,,0.00,0.00,VWS V14.01,2013-04-10 10:05:00,
2013-04-10 06:10:00,57.9,54.7,30.04,WNW,293,0.0,0.0,89,0.00,,,0.00,0.00,VWS V14.01,2013-04-10 10:10:00,
2013-04-10 06:15:00,57.8,54.6,30.04,WNW,293,0.0,0.0,89,0.00,,,0.00,0.00,VWS V14.01,2013-04-10 10:15:00,
2013-04-10 06:20:00,57.7,54.8,30.04,WNW,293,0.0,0.0,90,0.00,,,0.00,0.00,VWS V14.01,2013-04-10 10:20:00,
2013-04-10 06:25:00,57.6,54.7,30.04,WNW,293,0.0,0.0,90,0.00,,,0.00,0.00,VWS V14.01,2013-04-10 10:25:00,
2013-04-10 06:30:00,57.5,54.6,30.04,WNW,293,0.0,0.0,90,0.00,,,0.00,0.00,VWS V14.01,2013-04-10 10:30:00,
2013-04-10 06:35:00,57.3,54.4,30.04,WNW,293,0.0,0.0,90,0.00,,,0.00,0.00,VWS V14.01,2013-04-10 10:35:00,
2013-04-10 06:40:00,57.2,54.3,30.04,WNW,293,0.0,0.0,90,0.00,,,0.00,0.00,VWS V14.01,2013-04-10 10:40:00,
2013-04-10 06:45:00,57.1,54.2,30.05,WNW,293,0.0,0.0,90,0.00,,,0.00,0.00,VWS V14.01,2013-04-10 10:45:00,
2013-04-10 06:50:00,56.9,54.0,30.05,WNW,293,0.0,0.0,90,0.00,,,0.00,0.00,VWS V14.01,2013-04-10 10:50:00,
2013-04-10 06:55:00,56.8,53.9,30.05,WNW,293,0.0,0.0,90,0.00,,,0.00,0.00,VWS V14.01,2013-04-10 10:55:00,
2013-04-10 07:00:00,56.7,53.8,30.05,WNW,293,0.0,0.0,90,0.00,,,0.00,5.00,VWS V14.01,2013-04-10 11:00:00,
2013-04-10 07:05:00,56.6,53.7,30.05,WNW,293,0.0,0.0,90,0.00,,,0.00,7.00,VWS V14.01,2013-04-10 11:05:00,
2013-04-10 07:10:00,56.4,53.8,30.05,WNW,293,0.0,0.0,91,0.00,,,0.00,14.00,VWS V14.01,2013-04-10 11:10:00,
2013-04-10 07:15:00,56.3,53.7,30.05,WNW,293,0.0,0.0,91,0.00,,,0.00,18.00,VWS V14.01,2013-04-10 11:15:00,
2013-04-10 07:20:00,56.2,53.6,30.05,WNW,293,0.0,0.0,91,0.00,,,0.00,21.00,VWS V14.01,2013-04-10 11:20:00,
2013-04-10 07:25:00,56.2,53.9,30.05,WNW,293,0.0,0.0,92,0.00,,,0.00,28.00,VWS V14.01,2013-04-10 11:25:00,
2013-04-10 07:30:00,56.3,54.0,30.05,WNW,293,0.0,0.0,92,0.00,,,0.00,39.00,VWS V14.01,2013-04-10 11:30:00,
2013-04-10 07:35:00,56.3,54.3,30.05,WNW,293,0.0,0.0,93,0.00,,,0.00,54.00,VWS V14.01,2013-04-10 11:35:00,
2013-04-10 07:40:00,56.5,54.5,30.05,WNW,293,0.0,0.0,93,0.00,,,0.00,62.00,VWS V14.01,2013-04-10 11:40:00,
2013-04-10 07:45:00,56.7,55.0,30.05,WNW,293,0.0,0.0,94,0.00,,,0.00,70.00,VWS V14.01,2013-04-10 11:45:00,
2013-04-10 07:50:00,56.9,55.2,30.06,WNW,293,0.0,0.0,94,0.00,,,0.00,84.00,VWS V14.01,2013-04-10 11:50:00,
2013-04-10 07:55:00,57.3,55.6,30.06,WNW,292,0.0,0.0,94,0.00,,,0.00,81.00,VWS V14.01,2013-04-10 11:55:00,
2013-04-10 08:00:00,57.7,56.3,30.06,WNW,293,0.0,0.0,95,0.00,,,0.00,72.00,VWS V14.01,2013-04-10 12:00:00,
2013-04-10 08:05:00,58.2,56.8,30.06,WNW,293,0.0,0.0,95,0.00,,,0.00,76.00,VWS V14.01,2013-04-10 12:05:00,
2013-04-10 08:10:00,58.7,57.0,30.06,WNW,293,0.0,0.0,94,0.00,,,0.00,77.00,VWS V14.01,2013-04-10 12:10:00,
2013-04-10 08:15:00,59.3,57.6,30.06,WNW,292,0.0,0.0,94,0.00,,,0.00,79.00,VWS V14.01,2013-04-10 12:15:00,
2013-04-10 08:20:00,59.8,57.8,30.06,WNW,292,0.0,0.0,93,0.00,,,0.00,93.00,VWS V14.01,2013-04-10 12:20:00,
2013-04-10 08:25:00,60.2,57.9,30.06,WNW,293,0.0,0.0,92,0.00,,,0.00,105.00,VWS V14.01,2013-04-10 12:25:00,
2013-04-10 08:30:00,60.6,58.0,30.06,WNW,292,0.0,1.0,91,0.00,,,0.00,104.00,VWS V14.01,2013-04-10 12:30:00,
2013-04-10 08:35:00,61.1,58.2,30.06,WNW,292,0.0,0.0,90,0.00,,,0.00,125.00,VWS V14.01,2013-04-10 12:35:00,
2013-04-10 08:40:00,61.6,58.0,30.07,West,271,0.0,0.0,88,0.00,,,0.00,192.00,VWS V14.01,2013-04-10 12:40:00,
2013-04-10 08:45:00,62.2,58.3,30.07,SW,226,1.0,1.0,87,0.00,,,0.00,163.00,VWS V14.01,2013-04-10 12:45:00,
2013-04-10 08:50:00,62.9,58.3,30.07,SW,227,2.0,3.0,85,0.00,,,0.00,176.00,VWS V14.01,2013-04-10 12:50:00,
2013-04-10 08:55:00,63.6,58.7,30.07,WSW,242,1.0,1.0,84,0.00,,,0.00,223.00,VWS V14.01,2013-04-10 12:55:00,
2013-04-10 09:00:00,64.4,58.5,30.07,SSE,153,0.0,2.0,81,0.00,,,0.00,100.00,VWS V14.01,2013-04-10 13:00:00,
2013-04-10 09:05:00,64.9,58.6,30.07,WSW,245,2.0,5.0,80,0.00,,,0.00,237.00,VWS V14.01,2013-04-10 13:05:00,
2013-04-10 09:10:00,65.4,58.7,30.07,SW,220,0.0,0.0,79,0.00,,,0.00,255.00,VWS V14.01,2013-04-10 13:10:00,
2013-04-10 09:15:00,65.8,58.8,30.07,WSW,251,4.0,4.0,78,0.00,,,0.00,207.00,VWS V14.01,2013-04-10 13:15:00,
2013-04-10 09:20:00,66.3,58.9,30.07,ESE,109,1.0,3.0,77,0.00,,,0.00,251.00,VWS V14.01,2013-04-10 13:20:00,
2013-04-10 09:25:00,66.8,59.4,30.07,SSE,148,2.0,3.0,77,0.00,,,0.00,223.00,VWS V14.01,2013-04-10 13:25:00,
2013-04-10 09:30:00,67.3,59.1,30.07,South,181,1.0,3.0,75,0.00,,,0.00,204.00,VWS V14.01,2013-04-10 13:30:00,
2013-04-10 09:35:00,67.7,59.1,30.07,SSE,165,3.0,4.0,74,0.00,,,0.00,118.00,VWS V14.01,2013-04-10 13:35:00,
2013-04-10 09:40:00,68.0,59.0,30.07,West,263,0.0,0.0,73,0.00,,,0.00,105.00,VWS V14.01,2013-04-10 13:40:00,
2013-04-10 09:45:00,68.3,59.7,30.07,WSW,244,4.0,4.0,74,0.00,,,0.00,123.00,VWS V14.01,2013-04-10 13:45:00,
2013-04-10 09:50:00,68.5,59.1,30.07,West,267,3.0,4.0,72,0.00,,,0.00,148.00,VWS V14.01,2013-04-10 13:50:00,
2013-04-10 09:55:00,68.7,59.3,30.07,South,174,2.0,5.0,72,0.00,,,0.00,109.00,VWS V14.01,2013-04-10 13:55:00,
2013-04-10 10:00:00,69.0,59.6,30.07,South,182,3.0,3.0,72,0.00,,,0.00,186.00,VWS V14.01,2013-04-10 14:00:00,
2013-04-10 10:05:00,69.3,59.5,30.07,SSE,161,1.0,2.0,71,0.00,,,0.00,183.00,VWS V14.01,2013-04-10 14:05:00,
2013-04-10 10:10:00,69.6,59.8,30.07,ESE,107,3.0,3.0,71,0.00,,,0.00,327.00,VWS V14.01,2013-04-10 14:10:00,
2013-04-10 10:15:00,70.0,59.4,30.07,SW,222,0.0,1.0,69,0.00,,,0.00,236.00,VWS V14.01,2013-04-10 14:15:00,
2013-04-10 10:20:00,70.3,59.2,30.07,SE,140,2.0,2.0,68,0.00,,,0.00,446.00,VWS V14.01,2013-04-10 14:20:00,
2013-04-10 10:25:00,70.8,59.7,30.07,SE,140,1.0,2.0,68,0.00,,,0.00,374.00,VWS V14.01,2013-04-10 14:25:00,
2013-04-10 10:30:00,71.3,60.2,30.07,SSE,158,3.0,3.0,68,0.00,,,0.00,439.00,VWS V14.01,2013-04-10 14:30:00,
2013-04-10 10:35:00,71.7,60.2,30.07,WSW,246,0.0,1.0,67,0.00,,,0.00,468.00,VWS V14.01,2013-04-10 14:35:00,
2013-04-10 10:40:00,72.1,60.1,30.07,SW,236,0.0,1.0,66,0.00,,,0.00,485.00,VWS V14.01,2013-04-10 14:40:00,
2013-04-10 10:45:00,72.6,60.6,30.07,SE,138,3.0,3.0,66,0.00,,,0.00,538.00,VWS V14.01,2013-04-10 14:45:00,
2013-04-10 10:50:00,73.1,60.2,30.07,SE,138,1.0,2.0,64,0.00,,,0.00,582.00,VWS V14.01,2013-04-10 14:50:00,
2013-04-10 10:55:00,73.7,60.3,30.07,South,178,1.0,3.0,63,0.00,,,0.00,664.00,VWS V14.01,2013-04-10 14:55:00,
2013-04-10 11:00:00,74.1,60.7,30.07,SSW,193,0.0,0.0,63,0.00,,,0.00,675.00,VWS V14.01,2013-04-10 15:00:00,
2013-04-10 11:05:00,74.8,60.9,30.07,SW,232,2.0,3.0,62,0.00,,,0.00,691.00,VWS V14.01,2013-04-10 15:05:00,
2013-04-10 11:10:00,75.1,60.3,30.07,WNW,285,0.0,1.0,60,0.00,,,0.00,705.00,VWS V14.01,2013-04-10 15:10:00,
2013-04-10 11:15:00,75.8,61.4,30.07,South,188,1.0,2.0,61,0.00,,,0.00,717.00,VWS V14.01,2013-04-10 15:15:00,
2013-04-10 11:20:00,76.6,60.2,30.07,South,185,1.0,2.0,57,0.00,,,0.00,728.00,VWS V14.01,2013-04-10 15:20:00,
2013-04-10 11:25:00,77.1,60.2,30.07,South,175,2.0,3.0,56,0.00,,,0.00,738.00,VWS V14.01,2013-04-10 15:25:00,
2013-04-10 11:30:00,77.7,60.8,30.07,South,184,0.0,2.0,56,0.00,,,0.00,751.00,VWS V14.01,2013-04-10 15:30:00,
2013-04-10 11:35:00,78.2,61.2,30.06,WSW,240,0.0,0.0,56,0.00,,,0.00,759.00,VWS V14.01,2013-04-10 15:35:00,
2013-04-10 11:40:00,79.3,61.2,30.06,SW,229,0.0,0.0,54,0.00,,,0.00,770.00,VWS V14.01,2013-04-10 15:40:00,
2013-04-10 11:45:00,79.5,60.9,30.06,South,190,1.0,3.0,53,0.00,,,0.00,780.00,VWS V14.01,2013-04-10 15:45:00,
2013-04-10 11:50:00,80.2,60.5,30.06,SSW,207,0.0,1.0,51,0.00,,,0.00,791.00,VWS V14.01,2013-04-10 15:50:00,
2013-04-10 11:55:00,81.1,60.7,30.06,West,268,0.0,5.0,50,0.00,,,0.00,798.00,VWS V14.01,2013-04-10 15:55:00,
2013-04-10 12:00:00,81.2,60.2,30.06,NW,315,1.0,2.0,49,0.00,,,0.00,809.00,VWS V14.01,2013-04-10 16:00:00,
2013-04-10 12:05:00,81.4,61.0,30.06,West,261,1.0,1.0,50,0.00,,,0.00,809.00,VWS V14.01,2013-04-10 16:05:00,
2013-04-10 12:10:00,81.9,62.0,30.06,WSW,246,3.0,5.0,51,0.00,,,0.00,823.00,VWS V14.01,2013-04-10 16:10:00,
2013-04-10 12:15:00,81.8,60.2,30.06,SE,144,3.0,3.0,48,0.00,,,0.00,826.00,VWS V14.01,2013-04-10 16:15:00,
2013-04-10 12:20:00,82.0,59.2,30.06,West,266,1.0,1.0,46,0.00,,,0.00,826.00,VWS V14.01,2013-04-10 16:20:00,
2013-04-10 12:25:00,81.9,60.3,30.06,WSW,238,4.0,4.0,48,0.00,,,0.00,840.00,VWS V14.01,2013-04-10 16:25:00,
2013-04-10 12:30:00,82.2,61.2,30.05,SSE,160,4.0,5.0,49,0.00,,,0.00,844.00,VWS V14.01,2013-04-10 16:30:00,
2013-04-10 12:35:00,82.6,60.3,30.05,West,261,0.0,1.0,47,0.00,,,0.00,851.00,VWS V14.01,2013-04-10 16:35:00,
2013-04-10 12:40:00,83.1,61.4,30.04,WSW,248,0.0,1.0,48,0.00,,,0.00,849.00,VWS V14.01,2013-04-10 16:40:00,
2013-04-10 12:45:00,83.8,60.2,30.04,West,261,3.0,5.0,45,0.00,,,0.00,854.00,VWS V14.01,2013-04-10 16:45:00,
2013-04-10 12:50:00,83.4,60.5,30.04,West,263,3.0,3.0,46,0.00,,,0.00,856.00,VWS V14.01,2013-04-10 16:50:00,
2013-04-10 12:55:00,83.7,60.7,30.04,SSE,162,2.0,4.0,46,0.00,,,0.00,863.00,VWS V14.01,2013-04-10 16:55:00,
2013-04-10 13:00:00,84.2,60.6,30.04,NW,324,4.0,4.0,45,0.00,,,0.00,844.00,VWS V14.01,2013-04-10 17:00:00,
2013-04-10 13:05:00,84.4,61.4,30.04,WSW,246,1.0,5.0,46,0.00,,,0.00,872.00,VWS V14.01,2013-04-10 17:05:00,
2013-04-10 13:10:00,84.7,60.4,30.04,SW,236,2.0,2.0,44,0.00,,,0.00,877.00,VWS V14.01,2013-04-10 17:10:00,
2013-04-10 13:15:00,84.7,59.1,30.03,SSE,163,4.0,8.0,42,0.00,,,0.00,865.00,VWS V14.01,2013-04-10 17:15:00,
2013-04-10 13:20:00,84.8,61.1,30.03,South,183,3.0,3.0,45,0.00,,,0.00,872.00,VWS V14.01,2013-04-10 17:20:00,
2013-04-10 13:25:00,85.7,60.7,30.03,SW,236,4.0,4.0,43,0.00,,,0.00,875.00,VWS V14.01,2013-04-10 17:25:00,
2013-04-10 13:30:00,85.9,60.2,30.02,SW,218,1.0,3.0,42,0.00,,,0.00,877.00,VWS V14.01,2013-04-10 17:30:00,
2013-04-10 13:35:00,85.9,58.8,30.02,SW,235,3.0,5.0,40,0.00,,,0.00,875.00,VWS V14.01,2013-04-10 17:35:00,
2013-04-10 13:40:00,85.8,59.4,30.02,South,182,4.0,5.0,41,0.00,,,0.00,875.00,VWS V14.01,2013-04-10 17:40:00,
2013-04-10 13:45:00,85.7,58.6,30.02,SW,233,2.0,4.0,40,0.00,,,0.00,868.00,VWS V14.01,2013-04-10 17:45:00,
2013-04-10 13:50:00,85.9,58.8,30.02,SSW,205,1.0,2.0,40,0.00,,,0.00,867.00,VWS V14.01,2013-04-10 17:50:00,
2013-04-10 13:55:00,86.2,59.8,30.01,NNW,342,2.0,4.0,41,0.00,,,0.00,863.00,VWS V14.01,2013-04-10 17:55:00,
2013-04-10 14:00:00,86.1,59.7,30.01,WNW,292,0.0,0.0,41,0.00,,,0.00,863.00,VWS V14.01,2013-04-10 18:00:00,
2013-04-10 14:05:00,86.3,59.2,30.01,SE,136,1.0,2.0,40,0.00,,,0.00,863.00,VWS V14.01,2013-04-10 18:05:00,
2013-04-10 14:10:00,86.7,59.5,30.01,South,184,3.0,3.0,40,0.00,,,0.00,856.00,VWS V14.01,2013-04-10 18:10:00,
2013-04-10 14:15:00,86.8,60.3,30.01,ESE,103,0.0,1.0,41,0.00,,,0.00,860.00,VWS V14.01,2013-04-10 18:15:00,
2013-04-10 14:20:00,87.2,60.0,30.01,SE,134,5.0,7.0,40,0.00,,,0.00,858.00,VWS V14.01,2013-04-10 18:20:00,
2013-04-10 14:25:00,86.8,58.2,30.00,SE,135,3.0,4.0,38,0.00,,,0.00,844.00,VWS V14.01,2013-04-10 18:25:00,
2013-04-10 14:30:00,86.7,60.2,30.00,ESE,115,8.0,8.0,41,0.00,,,0.00,833.00,VWS V14.01,2013-04-10 18:30:00,
2013-04-10 14:35:00,85.9,60.2,30.00,South,183,5.0,5.0,42,0.00,,,0.00,830.00,VWS V14.01,2013-04-10 18:35:00,
2013-04-10 14:40:00,86.7,60.9,30.00,WSW,251,1.0,1.0,42,0.00,,,0.00,828.00,VWS V14.01,2013-04-10 18:40:00,
2013-04-10 14:45:00,87.4,60.8,30.00,SSE,163,4.0,5.0,41,0.00,,,0.00,817.00,VWS V14.01,2013-04-10 18:45:00,
2013-04-10 14:50:00,87.8,60.5,29.99,WSW,258,4.0,4.0,40,0.00,,,0.00,821.00,VWS V14.01,2013-04-10 18:50:00,
2013-04-10 14:55:00,87.7,59.0,29.99,WSW,254,6.0,8.0,38,0.00,,,0.00,810.00,VWS V14.01,2013-04-10 18:55:00,
2013-04-10 15:00:00,87.0,58.3,29.99,SSW,200,5.0,5.0,38,0.00,,,0.00,796.00,VWS V14.01,2013-04-10 19:00:00,
2013-04-10 15:05:00,86.7,59.5,29.99,WSW,258,1.0,3.0,40,0.00,,,0.00,795.00,VWS V14.01,2013-04-10 19:05:00,
2013-04-10 15:10:00,86.8,58.2,29.98,WSW,240,7.0,8.0,38,0.00,,,0.00,798.00,VWS V14.01,2013-04-10 19:10:00,
2013-04-10 15:15:00,86.7,58.8,29.98,South,185,2.0,4.0,39,0.00,,,0.00,782.00,VWS V14.01,2013-04-10 19:15:00,
2013-04-10 15:20:00,87.3,60.0,29.97,South,190,1.0,2.0,40,0.00,,,0.00,768.00,VWS V14.01,2013-04-10 19:20:00,
2013-04-10 15:25:00,87.9,59.2,29.97,NW,312,4.0,4.0,38,0.00,,,0.00,763.00,VWS V14.01,2013-04-10 19:25:00,
2013-04-10 15:30:00,88.0,59.2,29.97,SW,223,3.0,3.0,38,0.00,,,0.00,756.00,VWS V14.01,2013-04-10 19:30:00,
2013-04-10 15:35:00,87.9,60.6,29.97,SSE,163,4.0,4.0,40,0.00,,,0.00,740.00,VWS V14.01,2013-04-10 19:35:00,
2013-04-10 15:40:00,88.1,59.3,29.97,South,183,2.0,5.0,38,0.00,,,0.00,726.00,VWS V14.01,2013-04-10 19:40:00,
2013-04-10 15:45:00,88.3,59.5,29.96,SW,225,2.0,3.0,38,0.00,,,0.00,724.00,VWS V14.01,2013-04-10 19:45:00,
2013-04-10 15:50:00,88.0,58.5,29.96,NW,322,1.0,1.0,37,0.00,,,0.00,707.00,VWS V14.01,2013-04-10 19:50:00,
2013-04-10 15:55:00,87.8,59.1,29.96,SW,217,0.0,2.0,38,0.00,,,0.00,696.00,VWS V14.01,2013-04-10 19:55:00,
2013-04-10 16:00:00,88.3,58.8,29.96,SSE,163,4.0,4.0,37,0.00,,,0.00,686.00,VWS V14.01,2013-04-10 20:00:00,
2013-04-10 16:05:00,88.5,58.9,29.95,ESE,117,2.0,3.0,37,0.00,,,0.00,671.00,VWS V14.01,2013-04-10 20:05:00,
2013-04-10 16:10:00,88.4,59.6,29.95,South,177,2.0,4.0,38,0.00,,,0.00,650.00,VWS V14.01,2013-04-10 20:10:00,
2013-04-10 16:15:00,88.7,59.9,29.95,South,171,3.0,3.0,38,0.00,,,0.00,642.00,VWS V14.01,2013-04-10 20:15:00,
2013-04-10 16:20:00,89.0,59.4,29.94,South,191,4.0,4.0,37,0.00,,,0.00,629.00,VWS V14.01,2013-04-10 20:20:00,
2013-04-10 16:25:00,89.0,59.4,29.94,SW,223,3.0,4.0,37,0.00,,,0.00,622.00,VWS V14.01,2013-04-10 20:25:00,
2013-04-10 16:30:00,88.8,58.4,29.94,West,261,1.0,3.0,36,0.00,,,0.00,606.00,VWS V14.01,2013-04-10 20:30:00,
2013-04-10 16:35:00,89.0,58.6,29.94,SSE,148,5.0,5.0,36,0.00,,,0.00,592.00,VWS V14.01,2013-04-10 20:35:00,
2013-04-10 16:40:00,88.8,58.4,29.94,ESE,111,1.0,1.0,36,0.00,,,0.00,578.00,VWS V14.01,2013-04-10 20:40:00,
2013-04-10 16:45:00,88.9,58.5,29.94,South,191,2.0,2.0,36,0.00,,,0.00,559.00,VWS V14.01,2013-04-10 20:45:00,
2013-04-10 16:50:00,89.0,58.6,29.94,South,182,3.0,5.0,36,0.00,,,0.00,545.00,VWS V14.01,2013-04-10 20:50:00,
2013-04-10 16:55:00,88.9,59.3,29.93,SSE,159,3.0,3.0,37,0.00,,,0.00,534.00,VWS V14.01,2013-04-10 20:55:00,
2013-04-10 17:00:00,88.8,58.4,29.93,South,175,3.0,5.0,36,0.00,,,0.00,522.00,VWS V14.01,2013-04-10 21:00:00,
2013-04-10 17:05:00,88.7,58.3,29.93,South,172,4.0,7.0,36,0.00,,,0.00,497.00,VWS V14.01,2013-04-10 21:05:00,
2013-04-10 17:10:00,88.2,57.9,29.93,South,177,1.0,4.0,36,0.00,,,0.00,485.00,VWS V14.01,2013-04-10 21:10:00,
2013-04-10 17:15:00,88.1,58.6,29.93,SSW,203,1.0,2.0,37,0.00,,,0.00,471.00,VWS V14.01,2013-04-10 21:15:00,
2013-04-10 17:20:00,88.0,58.5,29.93,SSW,196,2.0,4.0,37,0.00,,,0.00,454.00,VWS V14.01,2013-04-10 21:20:00,
2013-04-10 17:25:00,88.1,58.6,29.93,South,190,1.0,2.0,37,0.00,,,0.00,434.00,VWS V14.01,2013-04-10 21:25:00,
2013-04-10 17:30:00,88.1,58.6,29.92,South,182,1.0,2.0,37,0.00,,,0.00,413.00,VWS V14.01,2013-04-10 21:30:00,
2013-04-10 17:35:00,88.0,57.7,29.92,SW,227,3.0,4.0,36,0.00,,,0.00,295.00,VWS V14.01,2013-04-10 21:35:00,
2013-04-10 17:40:00,87.4,58.7,29.92,North,355,2.0,3.0,38,0.00,,,0.00,221.00,VWS V14.01,2013-04-10 21:40:00,
2013-04-10 17:45:00,87.0,57.6,29.92,WNW,296,3.0,3.0,37,0.00,,,0.00,213.00,VWS V14.01,2013-04-10 21:45:00,
2013-04-10 17:50:00,86.8,58.2,29.92,South,175,1.0,4.0,38,0.00,,,0.00,97.00,VWS V14.01,2013-04-10 21:50:00,
2013-04-10 17:55:00,86.6,58.7,29.92,SE,146,1.0,3.0,39,0.00,,,0.00,107.00,VWS V14.01,2013-04-10 21:55:00,
2013-04-10 18:00:00,86.4,59.2,29.92,WNW,300,2.0,5.0,40,0.00,,,0.00,86.00,VWS V14.01,2013-04-10 22:00:00,
2013-04-10 18:05:00,86.0,58.9,29.92,SSE,163,3.0,5.0,40,0.00,,,0.00,105.00,VWS V14.01,2013-04-10 22:05:00,
2013-04-10 18:10:00,85.7,58.6,29.91,SSE,150,3.0,3.0,40,0.00,,,0.00,111.00,VWS V14.01,2013-04-10 22:10:00,
2013-04-10 18:15:00,85.4,58.4,29.91,South,180,3.0,4.0,40,0.00,,,0.00,125.00,VWS V14.01,2013-04-10 22:15:00,
2013-04-10 18:20:00,85.1,58.1,29.91,South,178,4.0,8.0,40,0.00,,,0.00,97.00,VWS V14.01,2013-04-10 22:20:00,
2013-04-10 18:25:00,84.9,58.6,29.91,ESE,107,3.0,3.0,41,0.00,,,0.00,121.00,VWS V14.01,2013-04-10 22:25:00,
2013-04-10 18:30:00,84.8,59.2,29.91,SW,222,1.0,2.0,42,0.00,,,0.00,134.00,VWS V14.01,2013-04-10 22:30:00,
2013-04-10 18:35:00,84.7,58.4,29.91,SSE,150,2.0,2.0,41,0.00,,,0.00,65.00,VWS V14.01,2013-04-10 22:35:00,
2013-04-10 18:40:00,84.4,58.8,29.91,SSW,209,5.0,5.0,42,0.00,,,0.00,95.00,VWS V14.01,2013-04-10 22:40:00,
2013-04-10 18:45:00,84.2,58.0,29.90,SSW,194,1.0,5.0,41,0.00,,,0.00,47.00,VWS V14.01,2013-04-10 22:45:00,
2013-04-10 18:50:00,84.0,58.5,29.90,ESE,115,0.0,2.0,42,0.00,,,0.00,65.00,VWS V14.01,2013-04-10 22:50:00,
2013-04-10 18:55:00,83.8,58.9,29.90,SE,130,0.0,1.0,43,0.00,,,0.00,58.00,VWS V14.01,2013-04-10 22:55:00,
2013-04-10 19:00:00,83.5,59.3,29.90,South,178,1.0,1.0,44,0.00,,,0.00,42.00,VWS V14.01,2013-04-10 23:00:00,
2013-04-10 19:05:00,83.2,59.0,29.90,South,182,2.0,3.0,44,0.00,,,0.00,46.00,VWS V14.01,2013-04-10 23:05:00,
2013-04-10 19:10:00,82.9,58.8,29.90,SSW,207,5.0,6.0,44,0.00,,,0.00,32.00,VWS V14.01,2013-04-10 23:10:00,
2013-04-10 19:15:00,82.5,59.0,29.90,South,182,2.0,2.0,45,0.00,,,0.00,28.00,VWS V14.01,2013-04-10 23:15:00,
2013-04-10 19:20:00,82.3,58.9,29.90,SSW,196,0.0,0.0,45,0.00,,,0.00,25.00,VWS V14.01,2013-04-10 23:20:00,
2013-04-10 19:25:00,82.1,58.7,29.90,SSE,157,0.0,1.0,45,0.00,,,0.00,21.00,VWS V14.01,2013-04-10 23:25:00,
2013-04-10 19:30:00,81.9,58.5,29.90,SSE,152,0.0,0.0,45,0.00,,,0.00,16.00,VWS V14.01,2013-04-10 23:30:00,
2013-04-10 19:35:00,81.6,58.8,29.90,SW,214,1.0,2.0,46,0.00,,,0.00,12.00,VWS V14.01,2013-04-10 23:35:00,
2013-04-10 19:40:00,81.4,58.7,29.91,SSW,200,0.0,1.0,46,0.00,,,0.00,9.00,VWS V14.01,2013-04-10 23:40:00,
2013-04-10 19:45:00,81.2,58.5,29.91,SW,227,0.0,0.0,46,0.00,,,0.00,7.00,VWS V14.01,2013-04-10 23:45:00,
2013-04-10 19:50:00,81.0,58.9,29.90,SSW,208,0.0,1.0,47,0.00,,,0.00,0.00,VWS V14.01,2013-04-10 23:50:00,
2013-04-10 19:55:00,80.7,58.6,29.91,SE,136,0.0,0.0,47,0.00,,,0.00,0.00,VWS V14.01,2013-04-10 23:55:00,
2013-04-10 20:00:00,80.4,58.9,29.91,SSE,152,0.0,0.0,48,0.00,,,0.00,0.00,VWS V14.01,2013-04-11 00:00:00,
2013-04-10 20:05:00,80.2,58.8,29.90,SSE,152,0.0,0.0,48,0.00,,,0.00,0.00,VWS V14.01,2013-04-11 00:05:00,
2013-04-10 20:10:00,79.9,58.5,29.90,SSE,157,1.0,2.0,48,0.00,,,0.00,0.00,VWS V14.01,2013-04-11 00:10:00,
2013-04-10 20:15:00,79.6,58.8,29.90,SSW,194,0.0,0.0,49,0.00,,,0.00,0.00,VWS V14.01,2013-04-11 00:15:00,
2013-04-10 20:20:00,79.3,58.5,29.90,ESE,114,1.0,2.0,49,0.00,,,0.00,0.00,VWS V14.01,2013-04-11 00:20:00,
2013-04-10 20:25:00,79.1,58.3,29.90,ESE,114,1.0,2.0,49,0.00,,,0.00,0.00,VWS V14.01,2013-04-11 00:25:00,
2013-04-10 20:30:00,78.8,58.0,29.90,ESE,114,1.0,1.0,49,0.00,,,0.00,0.00,VWS V14.01,2013-04-11 00:30:00,
2013-04-10 20:35:00,78.6,58.4,29.91,SW,223,0.0,0.0,50,0.00,,,0.00,0.00,VWS V14.01,2013-04-11 00:35:00,
2013-04-10 20:40:00,78.4,58.2,29.91,SW,223,0.0,0.0,50,0.00,,,0.00,0.00,VWS V14.01,2013-04-11 00:40:00,
2013-04-10 20:45:00,78.1,58.5,29.91,SE,136,0.0,1.0,51,0.00,,,0.00,0.00,VWS V14.01,2013-04-11 00:45:00,
2013-04-10 20:50:00,77.8,58.8,29.91,South,169,3.0,3.0,52,0.00,,,0.00,0.00,VWS V14.01,2013-04-11 00:50:00,
2013-04-10 20:55:00,77.5,58.5,29.91,WNW,288,0.0,0.0,52,0.00,,,0.00,0.00,VWS V14.01,2013-04-11 00:55:00,
2013-04-10 21:00:00,77.2,58.8,29.91,WNW,288,0.0,0.0,53,0.00,,,0.00,0.00,VWS V14.01,2013-04-11 01:00:00,
2013-04-10 21:05:00,77.0,58.0,29.91,WNW,288,0.0,1.0,52,0.00,,,0.00,0.00,VWS V14.01,2013-04-11 01:05:00,
2013-04-10 21:10:00,76.8,58.4,29.91,WNW,288,0.0,0.0,53,0.00,,,0.00,0.00,VWS V14.01,2013-04-11 01:10:00,
2013-04-10 21:15:00,76.6,58.2,29.92,WNW,288,0.0,0.0,53,0.00,,,0.00,0.00,VWS V14.01,2013-04-11 01:15:00,
2013-04-10 21:20:00,76.2,58.4,29.92,WNW,288,0.0,0.0,54,0.00,,,0.00,0.00,VWS V14.01,2013-04-11 01:20:00,
2013-04-10 21:25:00,76.0,58.2,29.92,East,96,0.0,0.0,54,0.00,,,0.00,0.00,VWS V14.01,2013-04-11 01:25:00,
2013-04-10 21:30:00,75.8,58.5,29.92,SSW,213,0.0,0.0,55,0.00,,,0.00,0.00,VWS V14.01,2013-04-11 01:30:00,
2013-04-10 21:35:00,75.5,58.2,29.92,SSW,213,0.0,0.0,55,0.00,,,0.00,0.00,VWS V14.01,2013-04-11 01:35:00,
2013-04-10 21:40:00,75.3,58.0,29.92,SSW,213,0.0,0.0,55,0.00,,,0.00,0.00,VWS V14.01,2013-04-11 01:40:00,
2013-04-10 21:45:00,75.2,58.4,29.92,SSW,213,0.0,0.0,56,0.00,,,0.00,0.00,VWS V14.01,2013-04-11 01:45:00,
2013-04-10 21:50:00,74.9,58.7,29.92,SSW,213,0.0,0.0,57,0.00,,,0.00,0.00,VWS V14.01,2013-04-11 01:50:00,
2013-04-10 21:55:00,74.7,58.0,29.92,SSW,213,0.0,0.0,56,0.00,,,0.00,0.00,VWS V14.01,2013-04-11 01:55:00,
2013-04-10 22:00:00,74.6,58.4,29.92,SSW,213,0.0,0.0,57,0.00,,,0.00,0.00,VWS V14.01,2013-04-11 02:00:00,
2013-04-10 22:05:00,74.3,58.1,29.92,SSW,213,0.0,0.0,57,0.00,,,0.00,0.00,VWS V14.01,2013-04-11 02:05:00,
2013-04-10 22:10:00,74.1,57.9,29.92,SSW,213,0.0,0.0,57,0.00,,,0.00,0.00,VWS V14.01,2013-04-11 02:10:00,
2013-04-10 22:15:00,73.9,58.2,29.92,SSW,213,0.0,0.0,58,0.00,,,0.00,0.00,VWS V14.01,2013-04-11 02:15:00,
2013-04-10 22:20:00,73.7,58.0,29.92,SSW,213,0.0,0.0,58,0.00,,,0.00,0.00,VWS V14.01,2013-04-11 02:20:00,
2013-04-10 22:25:00,73.5,58.8,29.92,SSW,213,0.0,0.0,60,0.00,,,0.00,0.00,VWS V14.01,2013-04-11 02:25:00,
2013-04-10 22:30:00,73.3,58.6,29.92,SSW,213,0.0,0.0,60,0.00,,,0.00,0.00,VWS V14.01,2013-04-11 02:30:00,
2013-04-10 22:35:00,73.0,58.3,29.92,SSW,213,0.0,0.0,60,0.00,,,0.00,0.00,VWS V14.01,2013-04-11 02:35:00,
2013-04-10 22:40:00,72.7,58.5,29.92,SSW,213,0.0,0.0,61,0.00,,,0.00,0.00,VWS V14.01,2013-04-11 02:40:00,
2013-04-10 22:45:00,72.4,58.7,29.92,SSW,213,0.0,0.0,62,0.00,,,0.00,0.00,VWS V14.01,2013-04-11 02:45:00,
2013-04-10 22:50:00,72.0,58.3,29.92,SSW,213,0.0,0.0,62,0.00,,,0.00,0.00,VWS V14.01,2013-04-11 02:50:00,
2013-04-10 22:55:00,71.7,58.0,29.91,SSW,213,0.0,0.0,62,0.00,,,0.00,0.00,VWS V14.01,2013-04-11 02:55:00,
2013-04-10 23:00:00,71.4,58.2,29.91,SSW,213,0.0,0.0,63,0.00,,,0.00,0.00,VWS V14.01,2013-04-11 03:00:00,
2013-04-10 23:05:00,71.2,58.0,29.91,SSW,213,0.0,0.0,63,0.00,,,0.00,0.00,VWS V14.01,2013-04-11 03:05:00,
2013-04-10 23:10:00,71.0,58.2,29.91,SSW,213,0.0,0.0,64,0.00,,,0.00,0.00,VWS V14.01,2013-04-11 03:10:00,
2013-04-10 23:15:00,70.9,59.0,29.91,SSW,213,0.0,0.0,66,0.00,,,0.00,0.00,VWS V14.01,2013-04-11 03:15:00,
2013-04-10 23:20:00,70.7,58.8,29.91,SSW,213,0.0,0.0,66,0.00,,,0.00,0.00,VWS V14.01,2013-04-11 03:20:00,
2013-04-10 23:25:00,70.4,59.3,29.91,SSW,213,0.0,0.0,68,0.00,,,0.00,0.00,VWS V14.01,2013-04-11 03:25:00,
2013-04-10 23:30:00,70.1,59.1,29.91,SSW,213,0.0,0.0,68,0.00,,,0.00,0.00,VWS V14.01,2013-04-11 03:30:00,
2013-04-10 23:35:00,69.8,59.2,29.91,SSW,213,0.0,0.0,69,0.00,,,0.00,0.00,VWS V14.01,2013-04-11 03:35:00,
2013-04-10 23:40:00,69.4,59.2,29.91,SSW,213,0.0,0.0,70,0.00,,,0.00,0.00,VWS V14.01,2013-04-11 03:40:00,
2013-04-10 23:45:00,69.0,58.8,29.91,SSW,213,0.0,0.0,70,0.00,,,0.00,0.00,VWS V14.01,2013-04-11 03:45:00,
2013-04-10 23:50:00,68.7,58.5,29.91,SSW,213,0.0,0.0,70,0.00,,,0.00,0.00,VWS V14.01,2013-04-11 03:50:00,
2013-04-10 23:54:00,68.4,58.2,29.91,SSW,213,0.0,0.0,70,0.00,,,0.00,0.00,VWS V14.01,2013-04-11 03:54:00,
2013-04-10 23:59:00,68.0,57.9,29.92,SSW,213,0.0,0.0,70,0.00,,,0.00,0.00,VWS V14.01,2013-04-11 03:59:00,